Location: Bishausen
(51.6334°N, 9.9631°E)
Time: 12:40:23
(UTC+00:00)

COSMOS 2406 - Pass Details

Date: 23 May 2024
Orbit: 843 x 862 km, 71.0° (Epoch: 12 June)

Event Time Altitude Azimuth Distance (km) Brightness Sun altitude
Exits shadow 01:19:32 15° 232° (SW) 2,136 4.7 -12.9°
Maximum altitude 01:24:10 55° 307° (NW) 1,031 3.7 -12.5°
Drops below altitude 10° 01:29:50 10° 25° (NNE) 2,510 7.2 -12.1°
Sets 01:32:22 0° 30° (NNE) 3,448 8.6 -11.9°
